This demonstration page uses our WeatherBlox Daily Observations layout. Learn more.

36.17497, -115.13722

Hourly Observations for February 5, 2018

Temp ( °F °C ) Dew Point ( °F °C ) Humidity (%) Winds ( mph kmh ) Pressure ( in mb ) Visibility ( mi km ) Precip ( " mm )
12:53 am 00:53 Clear 57 13.9 26 -3.3 30 30 N 7 11 30.06 1018 10 16.0934 0 0
1:53 am 01:53 Clear 54 12.2 27 -2.8 35 35 NW 3 6 30.04 1017 10 16.0934 0 0
2:53 am 02:53 Clear 55 12.8 27 -2.8 34 34 W 5 7 30.02 1017 10 16.0934 0 0
3:53 am 03:53 Clear 55 12.8 27 -2.8 34 34 Calm 30.03 1017 10 16.0934 0 0
4:53 am 04:53 Clear 55 12.8 25 -3.9 31 31 NNW 6 9 30.04 1017 10 16.0934 0 0
5:53 am 05:53 Clear 55 12.8 25 -3.9 31 31 N 3 6 30.06 1018 10 16.0934 0 0
6:53 am 06:53 Sunny 53 11.7 25 -3.9 34 34 WNW 3 6 30.09 1019 10 16.0934 0 0
7:53 am 07:53 Sunny 56 13.3 26 -3.3 32 32 Calm 30.08 1019 10 16.0934 0 0
8:53 am 08:53 Sunny 59 15 27 -2.8 29 29 N 8 13 30.1 1019 10 16.0934 0 0
9:53 am 09:53 Sunny 65 18.3 27 -2.8 24 24 N 7 11 30.08 1019 10 16.0934 0 0
10:53 am 10:53 Sunny 67 19.4 26 -3.3 21 21 Calm 30.06 1018 10 16.0934 0 0
11:53 am 11:53 Sunny 70 21.1 26 -3.3 19 19 VRB 6 9 29.99 1016 10 16.0934 0 0
12:53 pm 12:53 Sunny 72 22.2 25 -3.9 17 17 undefined N/A 29.95 1014 10 16.0934 0 0
1:53 pm 13:53 Sunny 74 23.3 25 -3.9 16 16 VRB 6 9 29.92 1013 10 16.0934 0 0
2:53 pm 14:53 Sunny 75 23.9 23 -5 14 14 Calm 29.9 1013 10 16.0934 0 0
3:53 pm 15:53 Sunny 75 23.9 25 -3.9 15 15 E 3 6 29.89 1012 10 16.0934 0 0
4:53 pm 16:53 Sunny 72 22.2 25 -3.9 17 17 SE 5 7 29.88 1012 10 16.0934 0 0
5:53 pm 17:53 Clear 69 20.6 27 -2.8 21 21 SE 3 6 29.9 1012 10 16.0934 0 0
6:53 pm 18:53 Clear 65 18.3 28 -2.2 25 25 NNW 6 9 29.91 1013 10 16.0934 0 0
7:53 pm 19:53 Clear 63 17.2 29 -1.7 28 28 N 7 11 29.92 1013 10 16.0934 0 0
8:53 pm 20:53 Clear 59 15 30 -1.1 33 33 Calm 29.93 1014 10 16.0934 0 0
9:53 pm 21:53 Clear 60 15.6 29 -1.7 31 31 WSW 5 7 29.92 1013 10 16.0934 0 0
10:53 pm 22:53 Clear 60 15.6 26 -3.3 27 27 WNW 7 11 29.92 1013 10 16.0934 0 0
11:53 pm 23:53 Clear 57 13.9 26 -3.3 30 30 NNW 5 7 29.91 1013 10 16.0934 0 0

Powered by AerisWeather